sat.trackr.live / text

‹ back to catalog

STARLINK-2404

NORAD 48093 · 2021-027B

PAYLOAD ACTIVE UNKNOWN

§ Identity

Operator
Country
US
Launch date
2021-04-07
Launch site
AFETR
Launch vehicle
Mass (kg)
RCS (m²)

Purposes: comms

External: N2YO · Heavens-Above · Gunter

§ Orbital elements

Epoch: 2026-09-15T16:32:50.251200Z

Period
94.01 min
Inclination
53.1595°
Eccentricity
0.0001348
Mean motion
15.31713876 rev/d
Perigee alt
469.8 km
Apogee alt
471.6 km
Semi-major
6,848.8 km
B*
1.2196e-4
RAAN
350.7165°
Arg perigee
87.2464°
Mean anomaly
272.8692°
Rev number
30,177

§ Raw data

STARLINK-24041 48093U 21027B   26258.68947050  .00003423  00000+0  12196-3 0  99912 48093  53.1595 350.7165 0001348  87.2464 272.8692 15.31713876301774

JSON: /api/v1/satellites/48093 · /tle

For live sub-satellite position, see the globe view (requires WebGL).

§ Visibility from observer

Set your observer location to see the next 7 days of passes ≥ 10°. The values pass through the URL so the page stays shareable.

No JS? Fill the form by hand. The geolocation button needs JavaScript.